User: anonymous   Login
Location: Unspecified
(0.0000°N, 0.0000°E)
Time: 01:58:16
(UTC+00:00)
Language:

Explorer 29 - Orbit

View from above orbital plane
View from above orbital plane
View from above satellite
View from above satellite

Ground track
Ground track

The orbit data is extracted from the following two-line orbital elements,

1  1726U 65089A   17147.83294256 -.00000030 +00000-0 +26731-3 0  9999
2  1726 059.3838 263.4961 0712727 218.1259 292.9786 11.97043683254072
Epoch (UTC): 27 May 2017 19:59:26
Eccentricity: 0.0712727
inclination: 59.3838°
perigee height: 1119 km
apogee height: 2269 km
right ascension of ascending node: 263.4961°
argument of perigee: 218.1259°
revolutions per day: 11.97043683
mean anomaly at epoch: 292.9786°
orbit number at epoch: 25407

The dashed part of the orbit path shows where the satellite is in the earth's shadow,  

DLR